ADT,Max TemperatureF,Mean TemperatureF,Min TemperatureF,Max Dew PointF,MeanDew PointF,Min DewpointF,Max Humidity, Mean Humidity, Min Humidity, Max Sea Level PressureIn, Mean Sea Level PressureIn, Min Sea Level PressureIn, Max VisibilityMiles, Mean VisibilityMiles, Min VisibilityMiles, Max Wind SpeedMPH, Mean Wind SpeedMPH, Max Gust SpeedMPH,PrecipitationIn, CloudCover, Events, WindDirDegrees
2014-3-1,26,16,6,23,6,-2,86,60,36,30.51,30.38,30.16,15,15,15,12,7,20,0.00,2,Snow,213
2014-3-2,31,25,19,30,26,16,100,89,80,30.14,29.97,29.88,15,6,1,15,9,21,0.08,8,Snow,249
2014-3-3,16,12,8,16,7,-2,93,76,48,30.13,29.94,29.90,15,12,1,15,9,21,0.00,6,Snow,346
2014-3-4,18,8,-3,7,-5,-15,68,52,26,30.31,30.25,30.15,15,15,14,16,10,23,0.00,2,Snow,279
2014-3-5,17,10,3,10,4,-6,86,72,51,30.32,30.29,30.25,15,9,1,14,8,,0.01,7,Snow,21
2014-3-6,23,12,0,3,-3,-10,72,52,25,30.45,30.39,30.32,15,15,15,16,9,18,0.00,0,,321
2014-3-7,31,20,9,21,5,-4,93,52,18,30.45,30.34,30.11,15,15,14,16,8,26,0.00,2,,226
2014-3-8,41,32,23,39,32,21,100,92,69,30.07,29.75,29.56,15,12,2,16,8,23,0.00,6,Rain,97
2014-3-9,29,25,19,19,14,9,86,64,39,29.78,29.71,29.62,15,14,6,20,13,26,0.00,4,Snow,330
2014-3-10,29,22,14,9,7,5,73,53,31,29.82,29.79,29.76,20,15,15,10,8,18,0.00,3,,321
2014-3-11,33,24,15,32,24,6,100,88,52,29.81,29.65,29.55,15,9,1,14,8,,0.08,7,Snow,135
2014-3-12,40,35,30,34,29,27,100,81,52,29.77,29.68,29.49,15,13,8,21,10,28,0.98,7,Fog-Rain-Snow,214
2014-3-13,52,34,14,52,32,10,100,96,78,29.41,29.08,28.93,5,2,0,30,18,53,1.14,8,Fog-Rain-Snow,346
2014-3-14,25,18,11,14,10,7,93,74,46,30.12,29.84,29.46,15,9,2,18,11,25,0.02,5,Snow,284
2014-3-15,41,30,18,39,33,10,100,91,68,30.10,29.89,29.68,15,8,0,20,12,25,0.31,7,Fog-Rain,178
2014-3-16,36,28,21,37,25,3,100,75,31,29.88,29.71,29.64,15,9,1,29,13,38,0.02,5,Rain-Snow,246
2014-3-17,22,16,10,1,0,-2,62,48,25,30.04,29.97,29.89,15,15,15,23,17,33,0.00,4,,289
2014-3-18,28,18,9,9,3,-4,67,49,24,30.32,30.15,30.00,15,15,15,24,11,26,0.00,0,,297
2014-3-19,38,26,15,18,10,5,74,53,17,30.40,30.34,30.29,15,15,15,10,6,,0.00,3,,317
2014-3-20,41,32,23,41,30,19,100,92,80,30.27,29.93,29.53,15,10,0,32,12,54,0.91,7,Fog-Rain-Snow,142
2014-3-21,39,36,32,37,30,25,100,79,51,29.70,29.61,29.53,15,13,1,23,15,34,0.00,7,,241
2014-3-22,42,35,28,30,25,19,100,76,29,29.91,29.77,29.59,15,10,0,18,12,25,0.24,7,Rain-Snow,233
2014-3-23,37,31,25,32,24,16,100,73,43,29.84,29.75,29.59,15,14,3,23,14,32,0.00,7,Snow,280
2014-3-24,21,14,7,14,2,-3,63,53,31,29.90,29.81,29.76,15,15,15,23,17,31,0.00,3,,324
2014-3-25,30,20,9,14,5,0,80,53,22,30.22,30.10,29.93,15,15,15,17,12,20,0.00,1,,268
2014-3-26,28,22,17,25,21,14,93,87,71,30.21,29.37,28.74,15,5,0,36,19,55,0.55,7,Rain-Snow,47
2014-3-27,28,24,19,19,13,3,93,67,29,30.16,29.50,28.87,15,10,0,46,34,62,0.00,3,Snow,312
2014-3-28,43,32,21,41,27,9,93,75,43,30.31,30.18,30.00,15,13,3,25,14,36,0.02,7,Rain-Snow,214
2014-3-29,47,40,32,43,37,27,100,86,61,30.36,30.15,29.98,15,10,0,17,12,26,0.00,8,Fog-Rain,307
2014-3-30,35,32,30,34,31,27,100,95,80,30.35,30.12,29.78,15,4,1,23,13,32,0.59,8,Rain-Snow,99
2014-3-31,37,34,30,37,33,28,100,96,93,29.78,29.70,29.65,8,3,1,25,16,34,0.08,8,Rain-Snow,44